• In Germany
  • List of Countries
  • For 7 days
  • Water Temperature
  • Satellite Maps
  • Weather Map
  • Weather Widgets
  • user-avatar
    Login

    Hourly Weather New Bern

    Today, 26 September, Tuesday

    Time Temperature Precipitation Wind Pressure Humidity
    00:00 +24°C° 0 mm 6 mps 757 mmHg 87%
    01:00 +24°C° 0 mm 6 mps 757 mmHg 87%
    02:00 +24°C° 0.1 mm 6 mps 757 mmHg 87%
    03:00 +24°C° 0.1 mm 6 mps 757 mmHg 87%
    04:00 +26°C° 0.1 mm 6 mps 756 mmHg 86%
    05:00 +26°C° 0.1 mm 6 mps 756 mmHg 86%
    06:00 +26°C° 0.1 mm 7 mps 756 mmHg 85%
    07:00 +26°C° 0.1 mm 7 mps 757 mmHg 84%
    08:00 +27°C° 0.3 mm 7 mps 756 mmHg 81%
    09:00 +27°C° 0.3 mm 7 mps 756 mmHg 78%
    10:00 +28°C° 0.3 mm 7 mps 756 mmHg 74%
    11:00 +29°C° 0.1 mm 7 mps 756 mmHg 72%
    12:00 +29°C° 0.1 mm 7 mps 756 mmHg 70%
    13:00 +30°C° 0.1 mm 7 mps 756 mmHg 68%
    14:00 +30°C° 0.1 mm 7 mps 755 mmHg 66%
    15:00 +30°C° 0.1 mm 7 mps 755 mmHg 65%
    16:00 +30°C° 0.1 mm 7 mps 754 mmHg 64%
    17:00 +29°C° 0 mm 6 mps 754 mmHg 67%
    18:00 +28°C° 0 mm 6 mps 755 mmHg 70%
    19:00 +27°C° 0 mm 6 mps 755 mmHg 73%
    20:00 +27°C° 0 mm 6 mps 755 mmHg 74%
    21:00 +27°C° 0 mm 6 mps 755 mmHg 76%
    22:00 +26°C° 0 mm 6 mps 755 mmHg 77%
    23:00 +26°C° 0 mm 6 mps 754 mmHg 78%

    Tomorrow, 27 September, Wednesday

    Time Temperature Precipitation Wind Pressure Humidity
    00:00 +26°C° 0 mm 6 mps 754 mmHg 78%
    01:00 +26°C° 0 mm 6 mps 754 mmHg 78%
    02:00 +26°C° 0 mm 6 mps 754 mmHg 79%
    03:00 +26°C° 0 mm 7 mps 753 mmHg 79%
    04:00 +24°C° 0 mm 7 mps 753 mmHg 79%
    05:00 +24°C° 0 mm 7 mps 753 mmHg 80%
    06:00 +24°C° 0 mm 7 mps 754 mmHg 80%
    07:00 +24°C° 0 mm 7 mps 754 mmHg 80%
    08:00 +27°C° 0 mm 7 mps 754 mmHg 75%
    09:00 +28°C° 0 mm 7 mps 754 mmHg 71%
    10:00 +29°C° 0 mm 7 mps 754 mmHg 66%
    11:00 +30°C° 0.1 mm 7 mps 754 mmHg 64%
    12:00 +32°C° 0.1 mm 7 mps 754 mmHg 62%
    13:00 +32°C° 0.1 mm 7 mps 754 mmHg 60%
    14:00 +32°C° 0 mm 6 mps 754 mmHg 61%
    15:00 +32°C° 0 mm 5 mps 753 mmHg 63%
    16:00 +30°C° 0 mm 5 mps 753 mmHg 64%
    17:00 +30°C° 0 mm 4 mps 754 mmHg 65%
    18:00 +29°C° 0 mm 4 mps 754 mmHg 66%
    19:00 +29°C° 0 mm 4 mps 755 mmHg 68%
    20:00 +28°C° 0 mm 4 mps 755 mmHg 69%
    21:00 +28°C° 0 mm 4 mps 755 mmHg 70%
    22:00 +27°C° 0 mm 4 mps 755 mmHg 71%
    23:00 +27°C° 0 mm 4 mps 755 mmHg 71%

    Day after tomorrow, 28 September, Thursday

    Time Temperature Precipitation Wind Pressure Humidity
    00:00 +27°C° 0 mm 4 mps 755 mmHg 71%
    01:00 +26°C° 0 mm 4 mps 755 mmHg 71%
    02:00 +26°C° 0 mm 4 mps 755 mmHg 71%
    03:00 +26°C° 0 mm 4 mps 755 mmHg 72%
    04:00 +25°C° 0 mm 4 mps 755 mmHg 72%
    05:00 +25°C° 0 mm 4 mps 756 mmHg 73%
    06:00 +25°C° 0 mm 4 mps 756 mmHg 73%
    07:00 +25°C° 0 mm 4 mps 756 mmHg 74%
    08:00 +27°C° 0 mm 4 mps 757 mmHg 69%
    09:00 +28°C° 0 mm 4 mps 757 mmHg 65%
    10:00 +30°C° 0 mm 5 mps 757 mmHg 60%
    11:00 +32°C° 0 mm 4 mps 757 mmHg 57%
    12:00 +33°C° 0 mm 4 mps 757 mmHg 54%
    13:00 +34°C° 0 mm 4 mps 756 mmHg 51%
    14:00 +33°C° 0 mm 4 mps 756 mmHg 52%
    15:00 +33°C° 0 mm 4 mps 756 mmHg 52%
    16:00 +32°C° 0 mm 4 mps 756 mmHg 52%
    17:00 +29°C° 0 mm 3 mps 757 mmHg 54%
    18:00 +27°C° 0 mm 3 mps 758 mmHg 56%
    19:00 +25°C° 0 mm 3 mps 759 mmHg 58%
    20:00 +25°C° 0 mm 3 mps 759 mmHg 55%
    21:00 +24°C° 0 mm 3 mps 760 mmHg 53%
    22:00 +22°C° 0 mm 3 mps 760 mmHg 50%
    23:00 +21°C° 0 mm 3 mps 760 mmHg 52%

    29 September, Friday

    Time Temperature Precipitation Wind Pressure Humidity
    00:00 +20°C° 0 mm 3 mps 760 mmHg 54%
    01:00 +19°C° 0 mm 3 mps 761 mmHg 57%
    02:00 +19°C° 0 mm 3 mps 761 mmHg 59%
    03:00 +19°C° 0 mm 3 mps 761 mmHg 61%
    04:00 +18°C° 0 mm 3 mps 761 mmHg 63%
    05:00 +18°C° 0 mm 3 mps 762 mmHg 65%
    06:00 +18°C° 0 mm 3 mps 762 mmHg 67%
    07:00 +18°C° 0 mm 3 mps 763 mmHg 69%
    08:00 +20°C° 0 mm 3 mps 763 mmHg 64%
    09:00 +21°C° 0 mm 3 mps 763 mmHg 58%
    10:00 +24°C° 0 mm 3 mps 764 mmHg 53%
    11:00 +25°C° 0 mm 2 mps 763 mmHg 49%
    12:00 +26°C° 0 mm 2 mps 763 mmHg 45%
    13:00 +27°C° 0 mm 2 mps 763 mmHg 42%
    14:00 +27°C° 0 mm 2 mps 762 mmHg 42%
    15:00 +27°C° 0 mm 2 mps 762 mmHg 42%
    16:00 +27°C° 0 mm 2 mps 762 mmHg 43%
    17:00 +25°C° 0 mm 2 mps 762 mmHg 49%
    18:00 +23°C° 0 mm 2 mps 763 mmHg 56%
    19:00 +20°C° 0 mm 2 mps 763 mmHg 63%
    20:00 +20°C° 0 mm 2 mps 763 mmHg 66%
    21:00 +19°C° 0 mm 2 mps 763 mmHg 69%
    22:00 +19°C° 0 mm 2 mps 763 mmHg 72%
    23:00 +18°C° 0 mm 2 mps 763 mmHg 75%

    30 September, Saturday

    Time Temperature Precipitation Wind Pressure Humidity
    00:00 +18°C° 0 mm 2 mps 763 mmHg 77%
    01:00 +18°C° 0 mm 2 mps 763 mmHg 79%
    02:00 +18°C° 0 mm 2 mps 763 mmHg 79%
    03:00 +17°C° 0 mm 2 mps 763 mmHg 79%
    04:00 +17°C° 0 mm 2 mps 763 mmHg 80%
    05:00 +17°C° 0 mm 2 mps 764 mmHg 78%
    06:00 +18°C° 0 mm 2 mps 764 mmHg 77%
    07:00 +18°C° 0 mm 2 mps 764 mmHg 76%
    08:00 +20°C° 0 mm 2 mps 765 mmHg 67%
    09:00 +22°C° 0 mm 3 mps 765 mmHg 59%
    10:00 +25°C° 0 mm 4 mps 765 mmHg 50%
    11:00 +26°C° 0 mm 4 mps 765 mmHg 47%
    12:00 +27°C° 0 mm 4 mps 765 mmHg 45%
    13:00 +27°C° 0 mm 4 mps 765 mmHg 43%
    14:00 +27°C° 0 mm 4 mps 765 mmHg 45%
    15:00 +26°C° 0 mm 4 mps 765 mmHg 48%
    16:00 +26°C° 0 mm 4 mps 765 mmHg 50%
    17:00 +23°C° 0 mm 4 mps 765 mmHg 59%
    18:00 +21°C° 0 mm 4 mps 766 mmHg 67%
    19:00 +19°C° 0 mm 4 mps 766 mmHg 75%
    20:00 +19°C° 0 mm 4 mps 766 mmHg 75%
    21:00 +18°C° 0 mm 4 mps 766 mmHg 75%
    22:00 +17°C° 0 mm 4 mps 767 mmHg 75%
    23:00 +17°C° 0 mm 4 mps 767 mmHg 77%

    1 October, Sunday

    Time Temperature Precipitation Wind Pressure Humidity
    00:00 +15°C° 0 mm 4 mps 767 mmHg 79%
    01:00 +15°C° 0 mm 4 mps 767 mmHg 80%
    02:00 +15°C° 0 mm 4 mps 767 mmHg 82%
    03:00 +15°C° 0 mm 4 mps 767 mmHg 83%
    04:00 +15°C° 0 mm 4 mps 767 mmHg 84%
    05:00 +15°C° 0 mm 4 mps 767 mmHg 82%
    06:00 +15°C° 0 mm 5 mps 767 mmHg 79%
    07:00 +15°C° 0 mm 5 mps 768 mmHg 77%
    08:00 +17°C° 0 mm 5 mps 768 mmHg 70%
    09:00 +20°C° 0 mm 6 mps 768 mmHg 63%
    10:00 +22°C° 0 mm 6 mps 769 mmHg 56%
    11:00 +22°C° 0 mm 6 mps 768 mmHg 54%
    12:00 +23°C° 0 mm 6 mps 768 mmHg 52%
    13:00 +24°C° 0 mm 6 mps 768 mmHg 49%
    14:00 +24°C° 0 mm 6 mps 767 mmHg 51%
    15:00 +23°C° 0 mm 6 mps 767 mmHg 53%
    16:00 +23°C° 0 mm 6 mps 767 mmHg 55%
    17:00 +22°C° 0 mm 5 mps 767 mmHg 62%
    18:00 +20°C° 0 mm 5 mps 768 mmHg 69%
    19:00 +19°C° 0 mm 4 mps 768 mmHg 76%
    20:00 +18°C° 0 mm 4 mps 768 mmHg 79%
    21:00 +18°C° 0 mm 4 mps 768 mmHg 81%
    22:00 +18°C° 0 mm 4 mps 768 mmHg 84%
    23:00 +18°C° 0 mm 4 mps 768 mmHg 85%
    Show more